Preview of NWS' New Version of Forecast
This preview is not operational and should not be used for support decisions.

Regional Weather Roundup (RWR)

Issued by National Weather Service (NWS)

                            
000
ASCA42 TJSJ 210110
RWRPR 
PUERTO RICO/U.S. VIRGIN ISLANDS HOURLY WEATHER ROUNDUP
NATIONAL WEATHER SERVICE SAN JUAN PR
900 PM AST SAT APR 20 2019

PRZ001>002-007>008-010-210200-
PUERTO RICO
  
CITY           SKY/WX    TMP DP  RH WIND       PRES   REMARKS
SAN JUAN LMM   PTCLDY    79  70  73 E13       30.07R                  
AGUADILLA      CLEAR     75  70  83 E12G21    30.07R                  
CEIBA          PTCLDY    81  70  69 MISG      30.08R                  
$$

VIZ001>002-210200-
U.S. VIRGIN ISLANDS
  
CITY           SKY/WX    TMP DP  RH WIND       PRES   REMARKS
CHARLOTTE AMA  CLEAR     79  68  69 E15G21    30.05S                  
CHRISTIANSTED  CLEAR     79  68  69 E13       30.05S                  
$$

HOURLY WEATHER ROUNDUP FOR THE NEWS MEDIA
  
CITY           SKY/WX    TMP DP  RH WIND       PRES   REMARKS
ORLANDO        FAIR      66  44  45 W8        29.99R                  
NEW YORK       CLOUDY    54  51  90 S17       29.86R                  
NEWARK         MOCLDY    56  49  77 E7        29.83R                  
CHICAGO        FAIR      53  16  23 NE7       29.81R                  
HARTFORD       LGT RAIN  59  59 100 SE8G21    29.98R FOG              
BOSTON         CLOUDY    63  60  90 SE14      29.94F                  
DALLAS         PTCLDY    76  49  38 S12       29.92S                  
PHILADELPHIA   MOCLDY    61  51  70 S8        29.79R                  
LOS ANGELES    PTSUNNY   59  51  75 W14       29.97F                  
WASHINGTON DC  FAIR      60  41  49 SW9       29.77R